This is the latest recevied weather packets stored in our database for station/object N5KR. If no packets are shown the sender has not sent any weather packets the latest 10 day(s).
| Time | Temp. | Humidity | Pressure | Rain* | Wind** | Luminosity | Snow |
|---|---|---|---|---|---|---|---|
| 1777838705 | 27.78° C | 31% | 1018.7 hPa | 0 mm | - | 796 W/m² | - |
| 1777838406 | 28.89° C | 31% | 1018.7 hPa | 0 mm | - | 804 W/m² | - |
| 1777835405 | 28.33° C | 32% | 1019.6 hPa | 0 mm | - | 862 W/m² | - |
| 1777832706 | 27.22° C | 33% | 1020.2 hPa | 0 mm | - | 870 W/m² | - |
| 1777831505 | 26.67° C | 36% | 1020.6 hPa | 0 mm | - | 870 W/m² | - |
| 1777830605 | 26.67° C | 36% | 1020.9 hPa | 0 mm | - | 862 W/m² | - |
| 1777829104 | 26.67° C | 39% | 1021.2 hPa | 0 mm | - | 839 W/m² | - |
| 1777828505 | 26.11° C | 40% | 1021.4 hPa | 0 mm | - | 833 W/m² | - |
| 1777827605 | 26.11° C | 40% | 1021.6 hPa | 0 mm | - | 815 W/m² | - |
| 1777827305 | 25.56° C | 42% | 1022.1 hPa | 0 mm | - | 804 W/m² | - |
| 1777824305 | 24.44° C | 44% | 1021.9 hPa | 0 mm | - | 723 W/m² | - |
| 1777820104 | 22.78° C | 50% | 1021.7 hPa | 0 mm | - | 541 W/m² | - |
| 1777818005 | 21.11° C | 52% | 1021.7 hPa | 0 mm | - | 435 W/m² | - |
| 1777813505 | 17.22° C | 63% | 1021.4 hPa | 0 mm | - | 154 W/m² | - |
| 1777812904 | 16.67° C | 65% | 1021.3 hPa | 0 mm | - | 119 W/m² | - |
| 1777810504 | 15° C | 69% | 1021 hPa | 0 mm | - | 17 W/m² | - |
| 1777810205 | 15° C | 69% | 1020.9 hPa | 0 mm | - | 14 W/m² | - |
| 1777808104 | 14.44° C | 71% | 1020.7 hPa | 0 mm | - | 0 W/m² | - |
| 1777807204 | 13.89° C | 72% | 1020.6 hPa | 0 mm | - | 0 W/m² | - |
| 1777806904 | 13.89° C | 72% | 1020.5 hPa | 0 mm | - | 0 W/m² | - |
| 1777806304 | 13.89° C | 71% | 1020.4 hPa | 0 mm | - | 0 W/m² | - |
| 1777804805 | 14.44° C | 69% | 1020.5 hPa | 0 mm | - | 0 W/m² | - |
| 1777804504 | 14.44° C | 69% | 1020.6 hPa | 0 mm | - | 0 W/m² | - |
| 1777799704 | 15° C | 65% | 1020.4 hPa | 0 mm | - | 0 W/m² | - |
| 1777794907 | 16.11° C | 60% | 1020.5 hPa | 0 mm | - | 0 W/m² | - |
* Rain latest hour (hover to see other rain measurements)
** Current wind speed in m/s (hover to see current wind gust speed)